Sitka, AK

9:20 PM AKDT on July 27, 2017 (GMT -0800)
Sitka Rocky Gutierrez | | Change Station

Elev 20 ft 57.05 °N, 135.36 °W | Updated 27 minutes ago

Mostly Cloudy
Mostly Cloudy
58 °F
Feels Like 58 °F
N
6
Wind Variable Wind from ESE

Today
High -- | Low -- °F
--% Chance of Precip.
Yesterday
High -- | Low -- °F
Precip. -- in
Pressure 30.07 in
Visibility 10.0 miles
Clouds Few 1400 ft
Scattered Clouds 4200 ft
Mostly Cloudy 5500 ft
Dew Point 54 °F
Humidity 87%
Rainfall 0.06 in
Snow Depth Not available.
4:51 AM 9:23 PM
Waxing Crescent, 27% visible
METAR PASI 280453Z 12005KT 10SM FEW014 SCT042 BKN055 14/12 A3007 RMK AO2 SLP183 T01440122
Pressure 30.07 in
Visibility 10.0 miles
Clouds Few 1400 ft
Scattered Clouds 4200 ft
Mostly Cloudy 5500 ft
Dew Point 54 °F
Humidity 87%
Rainfall 0.06 in
Snow Depth Not available.
4:51 AM 9:23 PM
Waxing Crescent, 27% visible
METAR PASI 280453Z 12005KT 10SM FEW014 SCT042 BKN055 14/12 A3007 RMK AO2 SLP183 T01440122

Get Severe Weather Alerts

Thanks for signing up!

Be on the lookout for a verification email in your inbox.

You'll start receiving the daily forecast at 6 AM.

×

10-Day Weather Forecast

Almanac

Astronomy

Jul. 27, 2017 Rise Set
Actual Time
Civil Twilight
Nautical Twilight
Astronomical Twilight
Moon
Length of Visible Light
Length of Day
Tomorrow will be .
, % of the Moon is Illuminated

Today's Extremes

State Highs State Lows

Community

WunderPhotos

Category 6

Welcome to Category 6. This is the collective home for Weather Underground's featured writeups by Dr. Jeff Masters (right), Bob Henson (left), Chris Burt, and other regular contributors.

Nearby

Air Quality

  Air Quality AQ Index Pollutant
Not available.

Snow Depth

Station Depth Elevation

Earthquake Activity

City Distance Mag. Time & Date
Minimum magnitude displayed is 2.5.

Coastal Water Temperatures

Place Temperature

Stations

Nearby Weather Stations

Station Location Temp. Windchill Dew Point Humidity Wind Precip. Elev Updated Type
                   

Watches & Warnings

There are currently no watches in effect.